{"data":{"norad_id":63354,"epoch":"2026-05-24T21:02:07.084032Z","epoch_age_seconds":89309,"freshness":"FRESH","line1":"1 63354U 25061D   26144.87647088  .00003847  00000+0  21552-3 0  9999","line2":"2 63354  97.5685 121.0768 0018450 342.0151  18.0425 15.13879137 64085","mean_motion":15.13879137,"eccentricity":0.001845,"inclination_deg":97.5685,"raan_deg":121.0768,"arg_perigee_deg":342.0151,"mean_anomaly_deg":18.0425,"bstar":0.00021552,"rev_number":6408,"period_min":95.119878780653,"perigee_km":511.64835322976,"apogee_km":537.11865388789,"semimajor_km":6902.5205035588,"source":"CELESTRAK","updated_at":"2026-05-25T13:38:13.541121Z"}}